GFSNIL_sfc_30mbdewp_039.txt.gz
Dewpoint
54 52 51 48 45 41 39 37 35 34 35 35 36 36 36 35 35 35 36 36 37 36
55 53 51 48 45 42 39 37 36 36 37 38 36 33 33 33 33 35 37 37 38 37
56 54 51 47 44 43 39 36 36 38 40 35 34 33 32 32 33 34 36 36 35 35
53 53 51 48 45 42 39 36 35 39 35 33 31 31 32 32 32 33 33 34 34 33
51 50 48 47 45 42 39 36 35 36 33 33 31 31 31 31 34 32 31 32 32 32
47 47 48 47 45 41 37 35 36 34 31 33 31 31 32 37 35 31 31 31 31 31
45 45 44 40 37 36 35 34 34 34 33 32 32 35 39 36 33 31 31 32 32 31
41 39 38 36 35 35 34 33 33 33 36 38 38 38 37 35 33 32 32 32 32 32
38 37 37 36 35 35 34 37 38 37 38 37 38 36 35 32 31 31 31 30 31 31
36 35 35 36 37 38 38 38 38 38 39 38 37 36 33 31 31 31 30 30 29 28
35 36 37 38 38 38 38 38 38 38 37 35 35 32 29 29 29 30 30 30 30 29
37 37 38 38 38 38 38 38 37 36 35 35 32 29 28 29 29 29 30 29 29 28
38 38 38 38 37 37 36 36 35 32 31 31 29 29 28 28 29 28 28 29 28 27
38 38 37 36 34 33 32 32 31 30 30 30 29 28 28 28 29 29 28 28 27 28

GFSNIL_sfc_30mbdewp_042.txt.gz
Dewpoint
58 58 57 56 53 50 47 47 44 42 40 36 36 39 41 39 38 35 33 33 32 29
57 57 56 55 53 49 47 44 42 40 37 37 39 40 38 35 34 32 34 34 34 33
57 57 56 56 53 49 46 43 41 39 38 39 39 37 35 33 32 32 34 33 32 31
57 57 57 55 53 50 48 45 41 38 38 40 37 35 34 33 31 34 37 33 30 29
57 56 56 54 52 50 46 41 41 39 40 35 34 34 34 33 32 40 36 30 29 29
54 53 52 51 49 46 45 43 40 38 37 34 35 34 33 38 40 40 36 32 30 29
51 51 51 50 49 46 44 41 38 39 38 36 34 34 38 39 40 38 38 34 32 31
48 47 45 44 43 42 42 38 37 35 38 38 38 39 38 38 38 38 35 33 32 32
42 40 39 38 37 36 36 37 38 39 39 39 36 39 38 37 38 38 32 29 29 30
38 37 37 36 36 38 37 40 39 38 35 37 38 38 38 38 35 30 29 28 27 26
38 37 37 37 37 38 38 38 37 38 39 39 38 37 37 34 30 28 26 25 26 27
37 37 38 37 38 38 38 38 39 38 37 36 36 37 32 29 28 26 25 25 25 26
37 37 37 38 39 37 37 37 36 34 33 32 31 31 30 29 28 27 27 27 26 26
37 36 35 33 30 29 28 29 30 30 30 30 29 29 30 30 29 29 30 28 27 26

GFSNIL_sfc_30mbdewp_045.txt.gz
Dewpoint
60 60 59 59 58 56 55 54 53 51 48 46 44 42 43 44 41 39 40 38 34 34
59 59 59 59 58 57 55 53 51 48 45 44 41 42 43 41 36 38 36 36 37 38
59 58 58 58 57 56 54 50 47 45 44 41 40 42 41 37 35 35 38 38 39 39
56 57 58 58 57 55 52 49 45 44 42 41 43 42 38 34 34 36 38 40 42 39
57 57 57 57 56 55 52 50 46 44 41 44 42 38 35 35 34 36 41 41 40 37
58 56 56 55 53 51 50 47 43 42 43 40 38 36 36 37 41 41 40 40 40 37
54 53 53 52 50 48 47 45 45 42 40 38 38 37 39 39 38 37 37 40 40 38
52 52 51 51 49 48 45 42 40 39 38 38 38 39 39 37 35 38 39 39 39 36
46 45 44 43 42 42 41 40 39 38 39 39 38 38 37 37 39 39 38 39 36 32
41 40 39 37 37 37 38 38 39 39 38 38 37 38 38 37 38 38 37 35 30 27
40 39 38 38 38 39 38 38 38 38 37 37 38 38 37 37 37 35 30 28 26 25
39 39 38 38 39 39 38 38 40 39 38 37 37 37 37 36 31 29 28 26 25 25
38 38 38 39 39 39 39 38 36 34 32 30 30 31 32 31 30 29 29 28 27 28
39 39 38 35 31 29 28 27 29 30 30 28 28 29 30 29 30 30 30 30 30 30

GFSNIL_sfc_30mbdewp_048.txt.gz
Dewpoint
56 58 58 57 59 58 56 57 56 56 54 53 50 47 46 46 45 43 42 37 41 39
56 59 59 60 59 59 58 57 55 55 51 48 46 44 45 45 42 40 41 40 41 39
55 57 60 60 59 59 58 56 54 51 48 46 44 45 44 42 40 40 39 41 40 40
59 58 59 59 58 58 57 52 49 48 46 44 43 45 43 41 37 36 39 42 42 41
59 59 58 58 58 57 52 49 47 47 45 43 44 44 41 37 35 41 40 39 41 41
59 58 58 56 55 54 53 51 48 46 43 43 43 40 38 38 41 41 40 41 40 40
56 55 54 52 51 49 48 45 44 44 44 41 40 40 41 41 40 39 40 40 40 40
54 54 53 51 50 48 47 46 43 41 40 41 41 40 40 39 39 38 37 39 40 39
52 52 52 51 49 47 43 41 40 40 39 39 38 39 39 39 38 39 39 38 38 39
45 43 42 41 41 41 40 40 39 39 40 39 38 38 38 37 38 38 38 38 38 37
41 39 39 38 39 39 40 40 40 39 39 39 38 37 38 38 38 38 37 36 32 30
40 40 40 39 40 40 40 39 40 40 39 39 39 37 37 37 36 32 31 31 30 31
40 40 40 40 40 40 40 39 38 38 38 32 32 34 31 31 32 31 30 30 29 29
40 40 39 39 39 38 35 33 32 31 31 30 31 29 28 26 27 24 24 25 25 25

GFSNIL_sfc_30mbdewp_051.txt.gz
Dewpoint
56 56 56 56 57 56 57 57 58 58 57 55 54 51 49 47 46 45 45 43 43 44
56 56 57 58 58 57 57 56 55 56 55 53 51 47 47 46 45 44 42 42 43 41
56 57 59 59 58 58 57 56 56 55 53 51 48 46 46 44 43 42 42 43 41 41
57 57 58 59 59 58 57 56 55 53 50 48 46 45 44 43 42 41 42 42 40 40
57 57 58 59 59 58 57 54 52 50 48 46 45 44 43 41 39 40 41 41 40 40
59 58 58 58 57 56 54 51 49 48 47 45 45 43 41 39 40 42 42 41 41 40
57 56 56 55 54 52 51 49 48 47 46 45 43 41 40 41 41 42 41 40 40 40
54 53 53 51 50 49 47 46 46 44 43 42 41 41 41 41 41 40 38 38 39 40
53 52 51 50 48 47 45 44 43 42 42 41 40 41 41 40 38 38 37 38 39 39
50 50 50 48 46 42 40 40 39 39 39 38 38 39 38 38 38 38 38 38 38 37
43 42 41 41 41 40 39 38 39 38 38 38 38 38 38 37 38 37 36 36 36 32
39 39 39 39 39 40 39 39 38 39 39 38 37 37 37 37 36 33 31 31 29 29
40 40 40 39 39 40 40 39 39 38 38 36 34 34 34 32 30 27 24 25 26 26
41 40 40 40 39 39 38 38 35 32 32 30 29 27 26 25 22 21 21 21 21 22

GFSNIL_sfc_30mbdewp_057.txt.gz
Dewpoint
51 51 49 48 51 53 52 53 55 56 57 58 57 57 56 56 55 53 50 48 46 47
48 50 49 50 52 55 55 54 55 57 56 56 56 56 55 54 52 50 48 48 47 46
47 49 49 50 53 56 56 56 56 56 56 55 55 55 53 51 49 48 47 46 45 44
47 49 51 52 54 57 56 56 56 56 56 55 54 51 50 48 47 46 45 45 44 43
49 51 52 53 56 57 57 57 57 57 55 54 53 51 49 47 45 44 44 44 43 42
54 54 54 55 57 58 57 57 57 56 54 52 51 49 48 46 45 44 44 43 42 42
54 55 55 56 57 58 58 57 55 54 53 51 49 48 46 44 44 43 43 43 42 42
55 57 57 57 57 58 56 55 54 52 51 49 47 45 43 43 43 42 42 42 41 41
56 57 57 57 56 55 53 52 51 49 48 47 45 43 42 42 42 42 41 40 40 40
57 57 56 54 52 51 50 48 47 46 45 44 43 42 41 41 41 40 40 39 38 35
55 53 51 50 49 46 46 46 45 44 44 43 42 41 40 40 39 38 37 36 35 30
52 50 49 47 45 45 44 43 43 42 41 41 40 40 38 37 35 33 30 28 27 25
49 47 46 45 43 42 42 40 39 38 38 38 38 37 36 34 31 28 25 23 22 22
46 45 44 41 40 39 39 37 34 32 32 33 34 34 34 31 28 25 22 19 18 20

GFSNIL_sfc_30mbdewp_060.txt.gz
Dewpoint
51 50 48 47 48 48 49 50 52 53 54 55 56 56 57 57 56 55 54 53 53 51
49 51 51 49 48 49 52 52 53 53 54 55 56 56 56 56 55 54 53 52 50 49
48 49 50 51 50 49 50 53 54 54 54 55 55 55 55 53 52 52 50 49 48 47
48 48 49 49 50 51 52 55 55 55 56 56 55 55 54 52 51 51 49 47 47 46
48 48 48 48 49 51 52 55 55 56 56 57 55 53 52 51 50 49 48 46 45 44
47 47 48 48 49 51 53 55 56 56 56 56 54 53 52 51 50 48 47 45 45 44
48 48 48 50 52 53 55 54 55 56 56 56 53 52 51 50 48 46 46 45 44 44
50 50 52 53 54 55 55 55 55 56 55 53 51 50 49 48 46 45 44 44 43 43
52 52 53 55 55 56 56 56 57 55 53 51 50 48 47 46 45 44 43 42 42 42
53 53 54 55 56 56 56 55 53 51 50 49 47 45 44 43 43 42 42 41 40 36
54 54 55 56 55 54 52 51 49 48 47 46 44 42 42 41 41 40 40 39 35 32
55 55 53 52 50 48 47 47 45 45 44 43 40 40 39 39 36 34 32 30 30 28
54 51 50 48 47 46 45 42 41 40 41 40 38 38 37 35 31 29 26 24 24 24
50 49 47 44 43 42 39 36 34 33 33 34 36 35 34 32 30 27 24 20 19 20

GFSNIL_sfc_30mbdewp_063.txt.gz
Dewpoint
50 50 49 48 48 49 50 50 52 53 53 54 56 56 57 57 57 57 55 55 54 54
51 50 49 49 50 49 50 50 51 52 53 54 55 56 57 57 57 57 56 56 57 55
50 51 51 51 50 50 50 50 51 51 52 53 54 55 56 56 57 56 56 56 55 54
50 50 51 51 52 52 51 51 51 51 51 51 52 55 56 56 56 54 55 53 52 52
51 50 50 50 50 52 52 52 51 52 52 53 54 55 55 55 54 52 52 51 50 50
51 51 50 50 50 50 51 51 52 52 53 53 53 54 55 55 53 52 52 51 50 49
49 50 50 50 50 50 51 51 51 53 53 53 54 55 55 53 52 51 51 50 49 47
49 49 49 49 50 50 50 51 51 52 53 55 55 55 55 53 52 50 48 47 47 45
50 49 49 49 49 50 51 51 52 53 54 55 55 54 52 53 51 49 46 45 44 43
50 51 51 51 51 52 53 54 54 55 55 56 54 51 49 48 48 46 45 43 41 39
52 52 52 53 53 54 55 55 55 55 53 53 50 47 45 45 44 43 42 41 38 35
53 53 53 54 54 54 53 52 50 49 48 47 44 42 42 41 39 36 35 34 33 32
54 54 54 52 51 48 48 45 43 42 43 42 39 38 38 37 34 31 30 29 29 27
53 53 51 48 46 44 41 38 36 35 35 36 37 36 35 35 33 29 27 25 24 24

GFSNIL_sfc_30mbdewp_066.txt.gz
Dewpoint
51 51 51 51 52 52 52 52 53 55 53 53 53 53 53 54 54 54 55 55 55 55
51 51 50 51 51 51 52 51 52 54 54 54 52 52 52 53 53 54 55 57 57 57
52 52 50 51 50 50 50 50 50 51 51 51 50 51 52 52 52 53 55 57 57 57
52 52 52 52 51 50 50 50 50 50 50 50 49 50 51 52 52 53 55 57 56 56
52 52 52 52 52 52 52 52 51 51 49 49 49 50 51 52 52 54 55 55 55 54
52 52 51 51 51 52 52 52 52 51 51 50 50 50 51 52 53 55 54 54 53 53
51 52 52 52 51 51 52 51 51 52 51 52 51 51 52 52 53 53 53 53 53 53
50 51 51 51 51 51 52 51 51 51 52 52 52 52 52 51 53 53 53 54 53 52
49 50 50 51 51 51 51 51 51 51 51 52 52 51 51 52 53 54 53 52 51 49
50 50 50 50 50 50 50 51 51 51 50 51 51 52 53 53 54 54 53 50 47 44
50 50 50 50 50 50 51 51 52 52 52 53 54 53 53 52 53 50 48 46 44 42
50 50 51 51 52 52 53 54 54 55 55 55 54 50 48 46 44 41 40 39 38 37
51 51 52 52 53 55 55 54 48 46 46 46 45 41 42 42 37 34 32 32 32 32
52 53 53 55 53 48 45 42 39 37 37 38 38 37 36 35 34 31 30 29 29 30

GFSNIL_sfc_30mbdewp_069.txt.gz
Dewpoint
54 52 51 51 53 54 54 53 53 54 54 53 53 54 53 54 53 54 55 55 54 54
55 54 54 53 54 54 53 52 52 52 53 53 53 53 52 51 52 53 55 56 56 55
54 54 53 53 53 54 54 53 52 53 53 52 52 52 52 50 52 53 54 55 55 56
54 54 54 53 53 53 54 54 53 54 53 53 52 52 52 51 52 52 53 54 54 55
54 54 54 54 53 53 53 54 53 53 53 52 52 52 51 51 51 51 52 52 53 55
53 54 54 54 54 54 53 53 53 51 51 51 51 52 52 52 52 52 52 52 53 55
53 53 54 54 54 54 54 53 53 52 51 52 51 51 51 51 52 52 52 53 53 55
52 53 53 54 54 54 54 54 53 53 53 53 53 52 52 52 52 51 51 53 54 54
51 51 52 53 54 54 54 54 53 53 53 53 53 51 50 51 53 52 53 53 54 53
51 51 52 53 53 53 54 54 54 53 53 53 54 52 50 49 52 53 53 53 54 54
51 51 51 52 52 53 53 54 54 54 54 54 53 52 50 49 52 53 53 53 54 52
50 50 51 51 52 53 53 53 53 54 54 53 53 51 49 49 52 50 43 42 43 41
50 50 50 52 52 53 53 53 54 51 48 47 51 45 47 47 43 38 35 33 34 34
49 50 51 51 53 54 53 47 43 41 38 38 38 37 39 39 37 33 31 30 30 31

GFSNIL_sfc_30mbdewp_075.txt.gz
Dewpoint
54 54 52 50 48 49 52 54 56 55 57 56 56 57 57 57 56 56 55 54 54 53
55 54 54 52 49 49 52 53 54 56 55 56 55 55 56 56 55 55 55 55 54 53
55 55 54 54 51 50 50 52 54 55 55 55 55 54 54 53 54 54 54 54 54 53
55 55 55 54 54 53 51 51 53 54 55 55 54 53 52 52 52 52 52 53 53 53
55 56 55 54 53 54 54 53 53 54 53 55 54 53 52 51 50 51 51 51 52 52
54 54 54 55 54 53 53 55 55 54 53 53 53 52 52 51 51 51 52 52 51 52
54 54 54 54 55 55 54 53 54 55 53 53 53 52 51 51 51 51 51 52 51 51
55 55 55 54 55 55 55 54 54 54 54 53 52 52 52 51 51 51 51 51 51 51
54 55 55 55 55 55 55 54 54 54 54 54 53 52 50 51 51 51 51 51 51 51
51 54 55 55 55 55 55 55 54 54 54 53 54 52 51 50 52 52 52 52 52 52
52 51 52 54 55 55 55 55 55 55 54 54 54 53 51 49 49 51 51 51 51 52
48 49 53 52 53 54 54 54 55 55 55 55 55 53 52 50 51 51 51 47 45 48
41 43 45 49 50 54 54 54 54 54 51 48 52 47 49 49 50 49 44 38 37 39
36 37 38 42 42 43 48 52 48 44 38 36 36 38 41 44 46 45 37 34 32 33

GFSNIL_sfc_30mbdewp_078.txt.gz
Dewpoint
55 54 54 53 52 52 53 54 55 55 55 54 55 56 56 56 55 55 54 52 53 53
55 54 53 52 52 51 53 54 56 55 55 55 55 55 56 56 55 56 55 54 54 53
55 54 53 52 50 50 51 53 54 55 55 56 55 55 56 55 56 55 55 54 54 53
55 55 54 53 51 49 49 52 53 54 55 55 56 55 55 55 54 54 54 54 53 53
55 55 55 54 54 52 49 50 52 53 54 54 54 54 54 54 53 53 53 53 53 53
55 55 55 54 55 54 52 51 50 52 52 53 54 54 53 53 52 51 52 52 52 52
55 55 55 55 55 54 54 54 53 52 52 52 52 54 53 53 52 51 50 50 51 51
54 54 54 54 54 55 54 53 53 54 54 53 53 53 53 53 52 51 51 50 51 52
54 54 54 54 53 53 54 55 54 53 54 54 54 53 52 52 52 51 51 50 50 51
54 55 55 54 54 53 54 55 54 54 54 53 54 53 51 50 52 52 51 51 51 51
46 48 51 55 55 55 54 55 54 54 54 54 54 53 52 50 51 51 52 52 52 51
43 44 46 48 48 53 55 55 55 55 54 54 54 50 50 50 51 52 52 52 52 52
37 39 41 42 43 43 46 51 54 46 38 35 38 34 37 41 49 51 51 46 40 38
31 33 34 36 38 39 41 38 36 33 32 31 31 32 33 34 38 42 41 35 32 32

GFSNIL_sfc_30mbdewp_081.txt.gz
Dewpoint
54 53 54 54 55 55 55 55 56 55 56 56 56 54 54 54 55 55 54 52 51 51
55 55 54 54 54 54 54 54 55 55 55 55 56 55 54 54 54 55 55 54 53 52
55 55 54 54 53 52 53 53 55 55 55 55 55 55 56 55 55 54 54 54 54 53
55 55 54 53 52 51 51 52 54 55 55 55 55 55 55 55 54 54 53 54 54 53
56 55 54 53 52 50 50 51 53 54 55 55 55 55 54 54 54 54 54 54 53 53
55 55 55 54 54 52 50 49 51 53 53 54 54 54 55 55 54 54 54 53 53 53
55 55 55 55 55 55 53 51 50 50 51 52 53 54 54 54 53 53 53 53 53 53
55 55 55 55 55 55 55 54 53 52 50 51 51 51 52 53 53 53 52 52 52 52
54 54 54 54 54 55 54 54 54 54 54 53 52 51 50 51 52 52 52 51 51 51
53 55 54 54 54 54 54 54 54 53 53 53 54 53 52 50 51 52 52 52 52 51
44 46 48 50 55 54 54 53 54 54 55 54 53 50 51 51 51 52 52 53 52 52
39 39 42 43 44 46 47 52 54 55 55 52 42 35 37 42 49 52 52 53 53 47
33 33 34 36 37 40 43 41 39 34 32 33 32 33 34 37 41 48 50 40 34 33
29 30 31 32 33 35 36 34 32 30 29 29 31 31 33 35 38 37 33 31 29 30

GFSNIL_sfc_30mbdewp_084.txt.gz
Dewpoint
54 55 56 56 56 56 56 56 57 57 57 56 57 57 55 55 54 54 52 51 50 50
54 53 54 55 55 56 57 57 57 57 57 57 57 55 56 55 54 55 54 54 53 52
55 54 54 54 54 54 55 55 56 56 56 56 56 56 54 54 55 54 55 55 55 54
55 55 54 54 53 53 53 54 55 55 56 55 55 55 55 54 54 53 53 54 54 54
55 55 54 54 53 52 52 53 54 55 55 55 55 55 55 55 55 54 54 54 53 53
55 55 54 54 52 51 51 51 53 54 54 55 55 55 54 54 54 54 54 54 54 53
54 55 55 55 54 52 51 50 51 52 53 53 54 55 55 55 54 54 54 54 54 53
54 55 54 54 54 55 53 52 50 50 51 52 53 53 54 54 54 54 54 53 53 54
54 54 54 54 54 54 54 54 53 52 51 50 51 51 50 53 53 53 53 52 52 53
50 53 54 54 54 54 54 54 54 54 54 53 53 50 49 49 51 51 52 52 52 52
41 43 44 46 47 50 52 54 54 54 54 54 39 36 38 42 48 51 52 52 52 52
36 37 38 38 39 42 45 43 38 37 38 38 34 34 35 37 43 48 51 50 36 36
32 33 34 35 36 37 37 34 33 31 31 31 31 32 33 35 40 42 38 32 32 32
30 30 31 31 32 33 32 31 29 28 28 28 30 30 31 33 33 33 31 30 29 30

GFSNIL_sfc_30mbdewp_087.txt.gz
Dewpoint
56 57 57 56 57 57 56 55 55 55 54 56 55 55 55 54 53 53 53 52 52 52
55 56 56 57 57 57 57 57 56 55 53 53 52 53 54 55 54 54 54 53 53 51
54 54 56 56 56 57 57 57 57 56 55 55 54 52 52 54 55 52 52 54 53 53
54 54 54 54 55 56 56 57 57 57 57 56 55 53 52 51 54 55 54 54 54 54
56 55 54 54 54 55 55 56 56 57 56 56 56 56 55 52 51 54 54 54 54 53
55 55 55 55 54 54 54 54 55 55 56 56 56 56 56 55 54 54 54 54 54 54
55 55 55 55 54 53 53 53 54 54 55 55 55 55 55 55 55 55 55 55 55 55
54 55 55 55 55 54 53 52 53 53 54 54 55 55 55 55 55 54 54 54 55 55
55 55 55 55 55 55 55 53 52 52 52 53 53 52 53 54 54 54 54 54 54 55
50 50 51 54 54 55 55 55 54 53 52 52 48 39 44 48 53 53 53 53 53 53
41 42 42 43 45 47 47 44 46 43 47 39 34 34 35 38 47 49 51 47 43 44
36 37 37 38 39 41 39 36 34 34 35 34 32 33 35 39 44 45 37 34 33 33
32 33 34 35 35 34 33 32 30 30 30 31 30 32 34 37 41 36 31 30 30 31
30 31 31 31 32 32 31 29 28 28 28 29 29 30 30 32 32 30 28 27 27 28

GFSNIL_sfc_30mbdewp_090.txt.gz
Dewpoint
56 56 56 57 57 55 55 55 55 55 55 56 56 56 55 55 54 55 55 55 53 53
56 56 57 57 57 56 56 56 56 55 55 55 55 55 55 55 53 54 54 54 54 53
55 56 57 57 57 57 56 56 55 55 55 54 54 53 54 54 54 54 54 53 53 49
54 55 56 56 57 57 57 56 55 54 53 51 51 51 50 50 52 54 53 53 53 51
54 54 54 54 56 57 57 57 57 56 55 55 54 53 51 49 49 53 53 50 53 52
54 54 55 55 55 56 57 57 57 57 56 56 55 54 53 52 49 49 50 53 54 53
54 55 55 55 55 55 55 55 56 56 56 56 57 56 55 53 52 52 50 52 54 54
55 55 55 55 55 55 54 54 55 55 55 56 56 56 56 56 56 55 54 54 52 53
53 53 54 54 54 55 54 54 54 54 55 55 54 43 48 55 55 55 55 55 55 55
48 49 50 54 54 54 54 54 53 53 53 45 39 36 39 44 53 55 55 54 54 54
41 42 43 44 45 43 43 42 41 40 38 36 34 35 37 40 47 51 39 37 37 40
37 38 38 38 38 38 35 34 34 34 34 33 32 34 36 42 43 36 33 32 32 33
34 34 34 34 34 33 32 31 30 30 30 30 30 32 34 38 35 31 29 29 29 30
31 32 32 32 31 31 30 29 29 28 28 28 29 29 30 31 30 29 27 27 27 28

GFSNIL_sfc_30mbdewp_093.txt.gz
Dewpoint
55 55 55 58 58 57 56 57 59 59 59 59 59 59 59 58 58 57 56 55 55 54
55 55 57 57 57 56 56 56 56 57 58 59 58 58 58 57 56 56 56 56 55 55
55 56 57 58 57 56 56 56 55 56 56 57 58 58 57 56 56 56 56 56 56 54
54 55 57 57 57 56 56 56 55 56 56 56 56 57 57 56 55 55 55 55 55 55
54 55 55 56 57 57 55 55 55 55 54 54 53 53 52 52 52 52 52 53 53 53
54 54 54 55 57 57 56 55 55 54 54 52 52 52 52 51 51 51 51 50 51 49
54 55 55 55 56 57 57 57 57 56 56 55 54 53 53 52 51 51 51 51 50 49
54 54 55 55 55 55 56 57 57 57 56 56 56 55 54 53 53 52 50 49 50 51
53 54 54 55 55 55 55 55 55 55 56 56 43 39 46 54 54 54 54 53 53 52
49 50 50 53 52 52 54 54 51 50 44 40 38 37 40 46 53 55 51 50 49 53
43 43 43 44 42 41 40 40 40 39 38 37 34 36 40 44 47 40 37 36 37 38
37 37 37 36 36 35 34 33 32 33 33 33 33 35 41 43 39 34 32 31 32 32
34 33 33 33 32 32 31 30 30 29 30 30 31 33 35 34 32 30 29 29 30 31
33 32 32 32 31 31 30 30 29 28 28 28 30 31 32 31 30 30 28 27 27 29

GFSNIL_sfc_30mbdewp_096.txt.gz
Dewpoint
58 58 57 57 59 59 58 58 60 60 60 59 59 59 59 59 58 58 58 56 54 54
58 56 56 58 58 58 57 57 59 59 59 59 59 59 59 59 57 57 58 56 55 54
57 56 58 58 57 56 56 56 57 57 59 59 59 59 59 58 58 57 58 57 55 54
55 56 57 57 57 56 56 56 56 56 56 58 58 58 58 58 57 57 57 57 55 55
56 57 57 57 57 56 55 56 56 56 56 56 57 58 57 57 57 57 56 55 55 55
56 56 56 57 56 56 55 55 55 55 54 54 54 54 56 55 55 55 55 54 54 54
55 55 55 56 57 56 55 55 54 54 54 53 53 53 53 53 53 53 52 52 52 52
55 55 55 57 57 57 56 55 55 55 54 54 53 53 52 52 52 52 52 53 53 53
55 56 56 56 56 57 57 57 56 56 56 54 42 40 49 53 53 53 53 51 51 51
49 50 49 49 49 49 48 46 44 42 41 38 37 37 42 52 54 53 51 50 51 50
42 42 41 41 40 39 39 38 38 37 37 36 36 39 42 45 42 38 36 36 37 38
37 36 35 35 34 34 33 32 32 32 32 33 33 35 40 39 35 32 31 32 33 33
33 33 32 32 32 31 30 30 29 29 30 31 31 33 34 33 32 30 29 30 31 32
33 32 32 32 31 30 30 29 28 27 28 28 30 32 32 31 30 29 28 28 29 30

GFSNIL_sfc_30mbdewp_099.txt.gz
Dewpoint
61 60 59 59 59 59 59 58 58 60 60 60 60 60 60 59 59 59 58 57 57 55
61 60 59 59 59 59 59 59 60 60 60 60 60 60 59 59 59 59 58 57 57 57
58 58 58 58 58 57 57 57 57 59 59 59 59 59 59 59 59 58 58 57 57 57
57 58 58 57 56 56 56 56 56 56 57 58 58 59 58 58 58 58 57 57 57 56
57 58 57 57 56 56 56 56 56 56 56 57 58 58 58 58 58 57 57 57 57 56
56 57 57 57 56 56 56 56 56 56 55 55 57 58 58 58 57 57 57 57 56 56
56 56 57 56 56 56 56 55 55 55 54 54 54 56 57 56 57 56 56 56 56 56
55 56 56 56 56 56 55 55 55 54 54 54 53 52 54 54 55 54 54 54 55 54
55 56 56 57 57 56 55 55 55 54 54 48 43 43 50 54 53 53 53 53 53 54
47 47 47 47 46 45 43 42 42 41 41 39 39 39 44 51 53 52 52 52 52 52
39 39 39 39 38 37 36 36 35 35 36 36 36 40 42 43 40 37 35 36 38 41
33 33 33 32 33 33 32 31 31 32 32 33 33 36 36 36 34 32 32 32 34 35
32 32 31 31 30 30 30 29 29 29 30 32 32 34 34 33 32 30 30 30 31 33
30 31 32 32 31 30 29 28 28 28 28 29 31 32 32 31 30 29 28 29 29 31

GFSNIL_sfc_30mbdewp_102.txt.gz
Dewpoint
61 60 60 60 60 60 59 59 60 61 61 61 60 60 60 60 59 59 58 57 57 56
60 60 60 59 59 59 59 59 59 60 59 60 60 60 60 59 59 59 58 58 57 56
60 60 59 59 59 59 58 59 58 58 59 59 60 60 60 59 59 59 58 58 57 57
59 59 59 58 58 58 57 57 57 58 58 59 59 59 59 59 59 58 58 58 57 56
58 58 57 57 56 56 56 56 56 56 56 56 57 58 58 58 58 58 57 57 57 57
58 57 57 56 56 55 55 55 56 56 55 55 56 57 58 58 58 58 58 57 57 56
57 57 57 56 55 55 55 55 55 55 55 55 54 55 57 57 57 57 57 57 57 57
57 57 57 56 55 55 56 55 55 55 54 54 51 48 51 57 57 57 57 57 57 57
45 55 56 56 56 55 52 53 53 53 51 48 45 42 48 53 55 56 55 55 55 54
37 41 43 44 43 42 41 41 40 40 40 40 39 41 45 50 51 48 49 52 53 50
33 34 35 36 35 35 35 34 34 34 35 35 36 37 41 44 40 38 38 39 44 47
32 31 31 31 31 31 31 31 31 32 32 32 33 34 35 37 35 34 33 34 37 38
30 31 31 30 30 30 29 29 29 29 30 31 31 33 33 33 32 31 31 31 32 34
26 28 30 30 30 29 29 28 28 28 29 29 30 31 32 31 30 30 29 29 30 31

GFSNIL_sfc_30mbdewp_105.txt.gz
Dewpoint
62 61 61 61 61 61 60 61 61 62 62 62 61 61 61 61 60 60 59 58 58 57
61 60 60 61 60 60 60 60 60 61 61 61 61 61 61 60 59 60 59 59 58 57
60 60 60 59 59 59 59 59 59 59 59 59 60 60 60 59 59 59 59 59 58 58
60 59 59 59 59 59 59 59 58 58 58 58 59 60 59 59 59 58 58 58 58 57
59 59 59 58 58 58 57 58 58 58 58 58 58 59 58 58 58 58 58 58 57 57
57 57 57 57 57 56 56 55 55 55 55 56 56 55 56 56 58 58 58 57 57 57
53 57 56 56 56 55 55 55 55 55 55 55 55 54 54 55 56 56 57 58 58 57
43 56 57 56 55 55 55 55 55 55 55 54 51 45 44 48 55 57 57 57 57 58
37 39 42 50 54 52 50 49 49 47 48 45 43 40 43 48 52 55 56 56 57 57
33 33 34 36 38 39 40 40 39 39 39 38 36 37 42 48 46 46 44 47 53 52
31 31 31 31 31 32 33 34 34 34 34 34 34 35 37 40 40 38 37 38 40 46
30 30 30 29 30 30 30 30 30 31 32 32 32 34 35 36 35 34 33 33 35 37
26 28 29 29 28 29 29 29 29 29 30 31 31 33 33 33 32 31 31 32 32 33
25 26 26 27 28 28 28 29 28 28 28 29 30 31 32 32 30 30 29 29 30 31

GFSNIL_sfc_30mbdewp_108.txt.gz
Dewpoint
62 62 61 61 61 61 61 61 62 62 62 62 62 62 62 61 61 60 60 59 59 58
62 62 61 61 61 61 61 61 61 61 61 62 62 62 61 61 60 60 60 59 59 58
61 61 60 60 61 61 60 60 61 60 61 61 61 61 61 60 60 60 60 59 59 58
60 60 60 60 60 60 59 59 60 60 59 59 60 60 60 60 60 59 59 58 58 57
59 59 59 58 58 58 58 58 58 58 58 58 58 59 59 59 59 58 58 57 57 57
50 58 58 57 57 57 57 57 58 58 57 57 57 57 57 56 56 57 58 57 57 57
41 49 56 56 56 56 56 56 56 55 55 55 55 55 53 52 52 54 56 56 57 58
37 39 44 51 55 55 55 55 55 55 55 53 49 43 44 47 49 51 53 55 56 56
34 34 35 36 38 39 40 41 43 44 45 43 41 37 40 43 50 49 47 50 56 57
32 32 32 32 32 33 33 34 34 35 37 36 35 35 39 42 44 43 41 41 44 50
30 31 31 30 30 30 30 30 31 31 32 33 33 34 36 38 38 37 35 36 38 41
27 27 29 29 29 29 28 28 29 29 30 30 31 33 34 35 34 33 32 32 33 35
26 26 26 27 28 30 29 29 28 28 28 29 28 31 32 32 32 31 31 31 31 32
25 26 27 27 27 28 28 28 28 28 28 28 29 28 29 29 29 29 28 28 28 30

GFSNIL_sfc_30mbdewp_111.txt.gz
Dewpoint
60 60 62 61 61 61 61 61 62 63 63 63 63 62 62 62 61 61 61 60 60 59
60 61 61 62 62 62 62 62 63 62 62 62 62 62 61 61 61 61 61 60 60 59
62 62 62 62 62 62 62 61 62 62 61 62 62 62 61 61 61 61 60 60 60 60
61 61 61 61 62 62 61 61 61 61 62 61 61 61 61 61 60 60 60 60 60 59
50 60 60 60 60 60 60 61 60 61 60 60 60 60 60 59 59 59 59 59 58 58
43 48 58 58 58 58 58 58 59 59 59 58 58 58 58 58 58 58 58 58 58 58
38 40 45 54 55 56 57 57 57 57 56 56 54 52 52 53 53 54 54 55 56 56
36 35 38 39 42 43 43 43 44 48 46 45 40 38 40 46 49 51 52 53 54 54
34 34 33 34 35 36 36 36 36 36 36 35 35 35 36 39 46 50 49 48 48 49
30 32 32 32 32 31 32 32 32 32 33 32 32 34 35 37 42 41 39 39 40 42
28 29 31 31 30 31 30 30 29 29 30 29 30 32 34 36 36 34 34 34 35 37
27 27 28 28 29 30 29 28 28 28 28 27 28 30 31 33 32 32 31 31 32 33
26 26 27 28 29 30 29 28 28 27 27 27 27 28 29 28 29 28 28 29 29 30
24 25 26 27 28 29 29 28 28 27 27 27 28 28 27 26 26 25 24 24 25 27

GFSNIL_sfc_30mbdewp_114.txt.gz
Dewpoint
51 54 55 56 55 58 61 61 62 63 63 63 63 63 63 62 62 62 62 62 61 59
51 57 57 57 58 59 61 61 63 63 63 63 63 63 63 62 62 62 62 61 62 61
51 57 58 60 61 60 62 62 62 62 62 62 62 63 63 62 62 61 62 61 61 61
50 59 60 61 61 61 62 61 62 63 62 62 62 62 62 62 61 61 61 61 61 60
45 50 61 60 61 62 61 62 62 62 61 61 61 61 61 61 60 60 60 60 60 60
40 42 45 56 59 60 60 60 60 61 61 61 60 60 60 60 60 60 60 59 59 58
36 38 40 42 45 46 50 55 52 50 45 44 43 44 48 54 56 56 56 57 57 56
35 35 35 36 38 39 40 40 40 38 38 37 36 36 39 46 51 52 53 54 54 53
32 32 33 33 34 33 34 34 34 34 33 34 34 35 37 42 48 47 45 44 43 45
30 31 31 32 31 30 31 31 31 31 31 31 32 34 36 39 38 37 36 35 35 38
28 28 30 30 29 30 30 29 29 29 29 29 30 32 34 34 33 32 32 31 31 33
28 28 28 28 29 29 28 28 28 27 28 28 28 30 30 30 30 29 28 28 29 29
27 28 28 28 29 30 30 29 28 27 28 27 27 28 28 28 27 26 25 25 26 27
26 26 27 27 28 28 28 28 29 29 29 29 28 28 27 27 25 25 24 23 24 26

GFSNIL_sfc_30mbdewp_117.txt.gz
Dewpoint
41 44 47 49 52 54 57 60 63 64 63 64 64 64 64 63 63 63 62 61 61 61
40 43 46 50 54 55 57 59 62 63 63 63 63 63 63 62 62 62 63 62 62 62
40 44 47 52 55 57 58 59 61 63 63 63 63 63 63 62 62 62 62 62 62 62
42 45 48 55 58 59 58 58 60 62 62 62 62 63 62 62 62 61 61 62 62 62
40 43 46 52 57 58 58 58 59 60 61 62 62 62 62 61 61 61 59 61 61 61
37 39 39 42 45 48 57 57 55 58 56 58 60 61 61 61 60 60 61 61 60 60
34 35 36 37 38 40 42 42 42 41 40 40 40 44 50 59 59 59 59 59 59 59
32 33 33 33 33 35 35 36 37 38 38 38 38 38 42 51 53 54 54 50 49 47
31 30 31 31 30 31 31 32 32 33 33 35 35 37 39 45 44 43 41 41 41 42
29 29 30 30 29 29 29 29 30 30 30 30 31 33 34 35 35 34 32 33 35 36
29 29 30 29 29 29 29 28 28 28 28 28 29 31 32 32 32 31 29 29 30 31
28 28 28 29 29 30 30 29 28 28 28 27 28 29 29 29 29 28 27 28 29 28
26 27 27 28 29 30 30 30 30 28 29 28 28 29 28 27 26 25 25 26 26 28
25 25 25 26 26 27 27 27 28 28 27 27 28 29 29 28 28 26 25 24 24 26

GFSNIL_sfc_30mbdewp_123.txt.gz
Dewpoint
30 32 33 34 36 37 39 42 45 48 52 57 60 61 62 62 62 60 60 61 61 60
32 33 34 35 36 37 39 41 43 46 49 54 57 60 59 60 60 61 59 59 61 61
34 36 37 38 38 39 41 42 43 45 47 51 55 58 59 59 59 59 62 61 61 61
34 35 36 37 39 41 43 44 45 46 48 51 55 58 58 59 58 59 61 62 61 60
32 33 34 34 36 38 40 45 48 49 50 53 53 54 55 55 54 49 58 61 61 60
31 31 32 33 33 34 35 36 39 40 40 40 42 44 48 51 51 59 60 61 61 60
30 31 31 31 31 32 32 32 32 34 34 34 35 38 43 51 58 58 58 55 55 51
30 31 31 30 30 29 30 31 30 30 31 32 33 33 36 39 40 41 42 41 38 38
28 29 30 30 29 28 28 29 30 29 29 30 31 32 32 32 32 33 34 34 34 35
26 26 28 29 29 27 27 27 26 28 28 29 30 31 31 31 30 30 29 30 31 32
21 22 24 25 26 28 26 25 25 25 26 27 29 31 30 30 29 28 28 28 28 29
17 20 21 22 23 23 24 23 22 23 23 23 27 29 30 29 28 28 27 28 30 28
17 16 17 19 20 22 20 20 20 19 20 22 23 27 29 28 27 26 27 28 29 30
20 17 16 16 17 18 19 17 17 17 18 19 22 22 25 27 27 27 26 26 26 29

GFSNIL_sfc_30mbdewp_126.txt.gz
Dewpoint
32 32 32 33 33 34 35 36 38 40 41 43 46 48 52 58 61 60 60 61 59 58
33 34 35 35 35 36 37 38 39 40 42 44 45 48 51 56 59 60 60 59 56 55
33 34 35 36 37 39 41 41 41 42 42 44 45 46 49 53 58 59 58 57 56 57
32 33 34 33 35 36 37 39 42 44 44 45 46 47 49 52 57 58 58 57 56 55
32 32 32 32 33 34 34 35 36 37 39 41 43 46 49 52 56 58 57 58 58 58
31 31 30 31 31 32 32 32 33 34 34 35 36 41 44 47 52 52 53 52 54 54
27 30 30 30 29 29 30 31 31 31 32 33 33 34 36 38 40 40 39 39 39 41
26 28 30 28 27 28 28 29 30 30 30 31 31 32 33 33 33 33 34 35 35 37
23 24 26 27 26 25 26 26 26 28 29 29 30 31 31 31 31 30 30 31 32 34
20 21 23 22 24 23 22 23 24 24 26 28 29 31 30 30 29 29 29 29 30 30
17 18 19 20 19 20 20 20 20 22 23 26 29 31 30 30 29 28 28 29 29 29
16 15 16 17 19 18 18 18 19 20 22 22 26 28 28 28 27 27 27 28 28 28
17 17 15 15 16 17 17 17 17 18 20 21 22 25 25 25 25 24 24 25 26 27
18 17 17 16 16 16 16 16 16 16 18 20 20 21 22 22 23 23 22 22 22 23

GFSNIL_sfc_30mbdewp_129.txt.gz
Dewpoint
30 32 33 34 35 35 35 36 37 38 38 39 41 42 44 47 48 53 60 60 61 60
32 33 33 35 35 35 37 39 40 40 40 40 41 42 45 46 47 52 58 59 60 60
31 33 33 33 33 34 36 37 38 40 40 42 42 43 44 45 47 49 53 58 59 58
29 31 32 32 32 33 34 34 35 36 38 43 45 46 47 47 47 49 53 57 58 57
28 31 29 30 30 32 32 33 33 34 34 35 37 41 45 48 50 52 54 56 56 56
25 28 28 27 28 28 29 30 31 31 32 32 33 35 39 42 45 42 42 43 45 45
23 25 27 26 26 26 27 27 29 29 30 31 31 33 34 35 36 36 37 38 38 37
22 24 23 24 23 23 24 25 26 28 29 29 30 30 31 32 32 32 33 34 35 37
18 19 21 20 21 21 21 22 24 25 27 28 29 31 30 29 29 29 29 30 31 32
16 16 17 18 18 18 19 20 22 23 26 26 28 30 30 29 27 26 26 27 27 28
16 15 15 16 17 17 18 19 20 21 22 24 25 27 28 28 26 25 26 26 26 26
17 16 15 15 16 17 17 17 19 20 21 20 21 23 24 24 23 23 23 24 26 26
17 17 16 15 16 17 17 16 17 18 20 19 19 19 19 21 21 21 20 21 23 24
17 17 16 15 16 16 16 16 16 15 17 18 17 18 17 18 19 19 18 17 18 21

GFSNIL_sfc_30mbdewp_132.txt.gz
Dewpoint
29 30 32 32 33 34 34 35 37 38 39 39 39 38 40 42 43 45 47 52 57 56
27 31 31 32 34 34 35 35 36 38 39 41 42 41 41 42 42 46 49 52 54 57
26 31 31 31 30 32 34 34 35 36 37 39 43 42 42 42 44 45 46 48 48 55
26 28 29 28 29 30 32 33 33 33 34 35 37 41 44 44 46 46 47 49 52 52
25 26 26 26 26 29 29 32 32 32 32 32 34 36 38 41 46 48 49 48 51 52
22 24 23 24 25 26 27 29 31 30 30 30 31 32 34 35 37 37 38 38 38 38
20 21 22 23 23 24 26 26 28 29 30 29 29 29 30 30 31 32 33 34 35 35
18 19 20 20 21 22 23 25 26 26 27 28 29 29 28 28 27 28 28 30 31 32
16 16 17 18 19 20 21 22 22 23 24 26 28 28 27 26 25 26 25 26 27 28
16 16 16 17 18 18 19 20 20 20 21 22 25 25 25 24 24 23 24 24 25 25
17 15 16 16 17 17 18 18 19 19 19 19 20 20 22 21 21 21 22 24 24 24
16 16 15 15 16 17 16 16 17 17 17 17 18 17 18 19 19 18 18 20 23 23
16 16 15 16 16 17 16 15 15 15 16 16 16 15 15 16 16 16 16 17 18 20
17 16 15 15 16 16 16 14 13 13 14 14 15 15 14 13 14 14 13 14 14 16